[[{"header":{"parameterUnit":"m.s-1","parameterCategory":1,"la1":30.2991,"la2":30.254,"lo1":-89.0895,"lo2":-89.0444,"dy":0.0017,"dx":0.0017,"nx":28,"ny":28,"refTime":"2025-07-25T09:00:00:Z","depth":0,"parameterNumber":2,"parameterNumberName":"U-component_of_WINDS"},"data":[0,0,0,0,0,0,0,0,0,0,0,0,0,0,0,0,0,0,0,0,0,0,0,0,0,0,0,0,0,0,0,0,0,0,0,0,0,0,0,0,0,0,0,0,0,0,0,0,0,0,0,0,0,0,0,0,0,0,-1.1878,-1.1879,0,-1.1891,-1.1891,-1.1891,-1.1847,-1.1845,-1.1844,-1.1843,-1.1858,-1.1859,-1.1861,0,0,0,0,0,0,0,0,0,0,0,0,0,-1.1819,-1.182,-1.1878,-1.1879,-1.1879,-1.1891,-1.1891,-1.1891,-1.1847,-1.1845,-1.1844,-1.1842,-1.1857,-1.1859,-1.1861,0,0,0,0,0,0,0,0,0,0,0,0,0,-1.184,-1.1821,-1.1878,-1.1858,-1.1856,-1.1891,-1.1891,-1.1891,-1.1847,-1.1845,-1.1843,-1.1841,-1.1856,-1.1859,-1.1861,-1.1916,0,0,-1.1869,-1.187,0,0,0,0,0,0,0,0,-1.1838,-1.1842,-1.1861,-1.1859,-1.1858,-1.1865,-1.1875,-1.19,-1.1848,-1.1851,-1.1843,-1.184,-1.1862,-1.1864,-1.1871,-1.1917,-1.1918,-1.1869,-1.187,-1.1871,-1.1872,0,0,0,0,0,0,0,-1.1837,-1.1841,-1.1883,-1.1861,-1.1859,-1.1849,-1.185,-1.188,-1.1868,-1.185,-1.1847,-1.1849,-1.1861,-1.1868,-1.1871,-1.1918,-1.1869,-1.1871,-1.1873,-1.1873,-1.2012,-1.2014,0,0,0,0,0,0,-1.1838,-1.184,-1.1883,-1.1884,-1.1843,-1.1852,-1.1853,-1.1865,-1.1867,-1.1865,-1.1851,-1.1847,-1.1865,-1.1868,-1.1871,-1.1937,-1.1871,-1.1874,-1.1875,-1.201,-1.2013,-1.2015,0,0,0,0,0,0,-1.1837,-1.1842,-1.1882,-1.1861,-1.1865,-1.1855,-1.1869,-1.1866,-1.1874,-1.1867,-1.1865,-1.1861,-1.1864,-1.1867,-1.1906,-1.1937,-1.1875,-1.1877,-1.2007,-1.2011,-1.2014,-1.2068,0,0,0,0,0,0,-1.1835,-1.1842,-1.1862,-1.1862,-1.1867,-1.1916,-1.1871,-1.1868,-1.1878,-1.1873,-1.1876,-1.1875,-1.1862,-1.1902,-1.1908,-1.1939,-1.1879,-1.2005,-1.2009,-1.2013,-1.2064,-1.2073,-1.2081,0,0,0,0,0,-1.1833,-1.1877,-1.1863,-1.1869,-1.1892,-1.1918,-1.1921,-1.1905,-1.188,-1.1901,-1.1897,-1.1875,-1.1932,-1.1907,-1.1913,-1.1945,-1.2003,-1.2008,-1.2013,-1.206,-1.2071,-1.2081,0,0,0,0,0,0,-1.1882,-1.1877,-1.1861,-1.1906,-1.1913,-1.1911,-1.1936,-1.1918,-1.1932,-1.1927,-1.1908,-1.1909,-1.1951,-1.1951,-1.1923,-1.1999,-1.1963,-1.197,-1.1997,-1.2008,-1.2016,-1.2016,-1.1881,0,0,0,0,0,-1.1898,-1.1919,-1.1913,-1.1954,-1.1958,-1.1947,-1.1958,-1.1945,-1.1951,-1.1954,-1.1953,-1.1961,-1.1981,-1.1994,-1.2012,-1.2064,-1.2064,-1.2089,-1.2097,-1.2105,-1.2111,-1.2139,-1.215,-1.2031,-1.2031,-1.2031,0,0,-1.1931,-1.193,-1.1945,-1.1963,-1.1967,-1.1991,-1.1949,-1.1975,-1.1993,-1.1958,-1.1994,-1.1994,-1.2002,-1.2047,-1.2067,-1.2049,-1.2144,-1.2111,-1.2117,-1.2119,-1.2145,-1.2157,-1.2167,-1.2035,-1.2034,-1.2034,0,0,-1.2003,-1.2004,-1.2038,-1.2043,-1.2049,-1.2042,-1.205,-1.2051,-1.2049,-1.2085,-1.206,-1.2081,-1.2115,-1.2122,-1.213,-1.2207,-1.2187,-1.2213,-1.2258,-1.2287,-1.2296,-1.2304,-1.2332,-1.2343,-1.2219,-1.2219,-1.2219,0,-1.2043,-1.2077,-1.2058,-1.2087,-1.2096,-1.2066,-1.2101,-1.2106,-1.2119,-1.2126,-1.2106,-1.2149,-1.2152,-1.2199,-1.2218,-1.2225,-1.2235,-1.2212,-1.2296,-1.2304,-1.2311,-1.2338,-1.2349,-1.2222,-1.2222,-1.2221,-1.2221,0,-1.2127,-1.2151,-1.2178,-1.219,-1.2202,-1.2234,-1.2221,-1.2236,-1.2223,-1.2218,-1.2256,-1.2258,-1.2277,-1.2287,-1.2274,-1.2333,-1.2322,-1.2299,-1.2263,-1.2326,-1.2351,-1.2361,-1.2227,-1.2226,-1.2225,-1.2224,0,0,-1.2229,-1.2232,-1.2242,-1.2248,-1.2253,-1.2271,-1.2302,-1.232,-1.2334,-1.2343,-1.237,-1.24,-1.2379,-1.2388,-1.2376,-1.2401,-1.2463,-1.2375,-1.2375,-1.2392,-1.2529,-1.2546,-1.2558,-1.2449,-1.2451,-1.2453,-1.2528,0,-1.2301,-1.2353,-1.2338,-1.2391,-1.2413,-1.2385,-1.2412,-1.2419,-1.2416,-1.2435,-1.2432,-1.2454,-1.2424,-1.243,-1.2453,-1.245,-1.249,-1.2444,-1.2475,-1.2476,-1.2474,-1.2571,-1.2589,-1.2661,-1.2538,-1.254,-1.2541,0,-1.2391,-1.2404,-1.2459,-1.2462,-1.2471,-1.2495,-1.2511,-1.2529,-1.2537,-1.2533,-1.2544,-1.2527,-1.2559,-1.2522,-1.2566,-1.2536,-1.2547,-1.2548,-1.2551,-1.2553,-1.2512,-1.2577,-1.2683,-1.2694,-1.2556,-1.2554,-1.2553,0,-1.2462,-1.2493,-1.253,-1.2536,-1.2539,-1.2558,-1.256,-1.2566,-1.2578,-1.2592,-1.26,-1.2617,-1.2627,-1.2642,-1.2631,-1.2605,-1.2678,-1.264,-1.2676,-1.2676,-1.2692,-1.2692,-1.2802,-1.2699,-1.2699,-1.2699,-1.2699,0,-1.2544,-1.2579,-1.2562,-1.2585,-1.2624,-1.2607,-1.2646,-1.2646,-1.2651,-1.2674,-1.2651,-1.2674,-1.2658,-1.2679,-1.2671,-1.2709,-1.2714,-1.2712,-1.271,-1.2714,-1.2715,-1.2722,-1.2717,-1.2702,-1.2701,-1.27,-1.27,0,-1.2629,-1.2619,-1.2658,-1.2658,-1.2659,-1.2688,-1.2689,-1.2711,-1.2706,-1.2736,-1.2742,-1.2734,-1.2759,-1.2749,-1.2775,-1.2769,-1.2819,-1.2809,-1.2816,-1.2814,-1.2851,-1.2848,-1.297,-1.2986,-1.2872,-1.2873,-1.2874,0,-1.2682,-1.2708,-1.2711,-1.2725,-1.2729,-1.2751,-1.2763,-1.2748,-1.2762,-1.2774,-1.2795,-1.2817,-1.2834,-1.2874,-1.2871,-1.2891,-1.2883,-1.2924,-1.2885,-1.289,-1.2884,-1.2883,-1.2886,-1.2932,-1.2933,-1.2935,-1.2935,0,-1.2777,-1.2771,-1.2789,-1.2806,-1.2822,-1.2834,-1.2845,-1.2858,-1.2844,-1.2861,-1.2885,-1.2898,-1.2924,-1.2947,-1.2965,-1.2968,-1.295,-1.2948,-1.2957,-1.2963,-1.2966,-1.2965,-1.2838,-1.2945,-1.2944,-1.2943,-1.2943,-1.2942,-1.2848,-1.2871,-1.2877,-1.2898,-1.2905,-1.2916,-1.2937,-1.2935,-1.2954,-1.2974,-1.2965,-1.2993,-1.3001,-1.3024,-1.303,-1.3053,-1.3036,-1.305,-1.3054,-1.3057,-1.3062,-1.2962,-1.3056,-1.3055,-1.3055,-1.3055,-1.3055,0,-1.2943,-1.2946,-1.2966,-1.2982,-1.2999,-1.298,-1.2991,-1.3007,-1.3032,-1.3041,-1.3058,-1.3087,-1.3109,-1.3109,-1.313,-1.3148,-1.314,-1.3154,-1.3153,-1.3154,-1.3075,-1.3065,-1.316,-1.316,-1.316,-1.316,-1.316,-1.316,-1.2995,-1.3032,-1.3027,-1.3068,-1.3071,-1.3098,-1.3106,-1.3117,-1.3124,-1.3157,-1.3175,-1.3174,-1.318,-1.3201,-1.3221,-1.3221,-1.323,-1.3247,-1.3243,-1.317,-1.3159,-1.3149,-1.314,-1.3249,-1.3249,-1.332,-1.3321,-1.3321]},{"header":{"parameterUnit":"m.s-1","parameterCategory":1,"la1":30.2991,"la2":30.254,"lo1":-89.0895,"lo2":-89.0444,"dy":0.0017,"dx":0.0017,"nx":28,"ny":28,"refTime":"2025-07-25T09:00:00:Z","depth":0,"parameterNumber":3,"parameterNumberName":"V-component_of_WINDS"},"data":[0,0,0,0,0,0,0,0,0,0,0,0,0,0,0,0,0,0,0,0,0,0,0,0,0,0,0,0,0,0,0,0,0,0,0,0,0,0,0,0,0,0,0,0,0,0,0,0,0,0,0,0,0,0,0,0,0,0,5.2127,5.2127,0,5.2214,5.2215,5.2216,5.2138,5.2134,5.2131,5.2128,5.2215,5.222,5.2226,0,0,0,0,0,0,0,0,0,0,0,0,0,5.1887,5.1892,5.2126,5.2128,5.2129,5.2214,5.2215,5.2216,5.2138,5.2134,5.213,5.2127,5.2214,5.222,5.2226,0,0,0,0,0,0,0,0,0,0,0,0,0,5.1985,5.1894,5.2126,5.21,5.2098,5.2214,5.2215,5.2217,5.2139,5.2134,5.2129,5.2125,5.2211,5.2219,5.2227,5.2372,0,0,5.2251,5.2255,0,0,0,0,0,0,0,0,5.1979,5.1993,5.2103,5.2102,5.21,5.216,5.2163,5.2269,5.214,5.2123,5.2128,5.2122,5.2201,5.2209,5.2236,5.2376,5.238,5.2252,5.2257,5.226,5.2262,0,0,0,0,0,0,0,5.1972,5.1989,5.2161,5.2104,5.2103,5.2082,5.2091,5.2182,5.2188,5.2125,5.2119,5.2131,5.2199,5.2229,5.2237,5.2381,5.2252,5.2259,5.2264,5.2267,5.2642,5.2647,0,0,0,0,0,0,5.1969,5.1984,5.2158,5.2164,5.2027,5.2091,5.21,5.2146,5.2187,5.2188,5.2135,5.2127,5.2217,5.2228,5.224,5.2411,5.226,5.2268,5.2272,5.2637,5.2643,5.2649,0,0,0,0,0,0,5.1964,5.1985,5.2155,5.2072,5.2092,5.21,5.2152,5.215,5.2179,5.2194,5.2194,5.2164,5.2214,5.2229,5.2339,5.2413,5.2271,5.2278,5.2631,5.2639,5.2646,5.2755,0,0,0,0,0,0,5.1958,5.1984,5.204,5.2074,5.2097,5.2254,5.2156,5.2155,5.2194,5.2184,5.2222,5.2224,5.2211,5.2328,5.2347,5.2421,5.2285,5.2624,5.2634,5.2644,5.2745,5.2766,5.2783,0,0,0,0,0,5.1949,5.2067,5.2044,5.2065,5.2168,5.2259,5.2271,5.2256,5.22,5.2256,5.2265,5.2222,5.2402,5.234,5.2361,5.2439,5.2619,5.2631,5.2643,5.2736,5.2762,5.2783,0,0,0,0,0,0,5.2041,5.2072,5.2045,5.2178,5.2217,5.2245,5.2315,5.2283,5.2338,5.2326,5.2304,5.2313,5.2429,5.2445,5.2375,5.258,5.2501,5.2518,5.2565,5.2589,5.2608,5.2601,5.2291,0,0,0,0,0,5.2077,5.215,5.2171,5.2286,5.2307,5.2308,5.2347,5.2332,5.237,5.2385,5.2403,5.2441,5.2505,5.2548,5.2609,5.2747,5.2753,5.281,5.283,5.2845,5.2859,5.2931,5.2957,5.2687,5.2687,5.2687,0,0,5.2152,5.2177,5.2224,5.2306,5.2333,5.2407,5.2322,5.2404,5.2458,5.2397,5.2503,5.2517,5.2557,5.2682,5.2737,5.2698,5.2935,5.286,5.2873,5.2878,5.2946,5.2972,5.2994,5.2695,5.2694,5.2692,0,0,5.2325,5.2353,5.2451,5.248,5.2523,5.2523,5.2546,5.258,5.2587,5.2692,5.2648,5.2711,5.2823,5.2853,5.2884,5.3067,5.3029,5.3087,5.3187,5.3258,5.3279,5.3298,5.3361,5.3385,5.3102,5.3102,5.3102,0,5.2412,5.2523,5.2505,5.259,5.2626,5.2575,5.2672,5.2702,5.2762,5.2788,5.2744,5.2883,5.2907,5.3036,5.3081,5.3108,5.3132,5.3082,5.3278,5.3296,5.3313,5.3374,5.3398,5.3108,5.3108,5.3107,5.3106,0,5.2627,5.2704,5.2777,5.2837,5.2882,5.2973,5.2967,5.3014,5.2995,5.2999,5.3105,5.3132,5.3196,5.3226,5.3208,5.3353,5.3327,5.3281,5.3201,5.3346,5.3402,5.3425,5.3118,5.3116,5.3114,5.3112,0,0,5.2861,5.2909,5.2936,5.2962,5.3005,5.3064,5.3151,5.3215,5.3254,5.3298,5.337,5.3465,5.3422,5.3457,5.3441,5.3503,5.3644,5.3449,5.3449,5.3483,5.3804,5.3837,5.3864,5.362,5.3624,5.3628,5.38,0,5.3035,5.3188,5.3174,5.3319,5.3388,5.334,5.3416,5.345,5.3456,5.3515,5.352,5.3588,5.3527,5.3547,5.3607,5.3615,5.3708,5.3602,5.3685,5.3688,5.3675,5.3894,5.393,5.4091,5.3822,5.3825,5.3828,0,5.3258,5.3309,5.3461,5.3492,5.3521,5.359,5.3645,5.3703,5.374,5.3739,5.3777,5.375,5.3837,5.3756,5.3874,5.3803,5.3835,5.3844,5.385,5.3856,5.3766,5.3905,5.4142,5.4166,5.3863,5.386,5.3858,0,5.3411,5.3518,5.3622,5.3646,5.3685,5.3734,5.3753,5.3785,5.3823,5.3872,5.3896,5.3954,5.3985,5.403,5.4019,5.3962,5.4139,5.4058,5.4139,5.414,5.4178,5.4175,5.4423,5.4202,5.4201,5.4201,5.42,0,5.3606,5.3701,5.3691,5.3756,5.3859,5.3841,5.3944,5.3956,5.3985,5.4049,5.4011,5.4072,5.4054,5.4114,5.4106,5.4204,5.4219,5.4219,5.4216,5.4222,5.4222,5.4243,5.4231,5.4207,5.4206,5.4205,5.4204,0,5.3795,5.3793,5.3903,5.3931,5.394,5.4015,5.4038,5.4097,5.4099,5.4181,5.4199,5.4203,5.4271,5.4264,5.4341,5.4336,5.4456,5.444,5.4444,5.444,5.4521,5.4513,5.4789,5.4824,5.4582,5.4584,5.4586,0,5.3919,5.399,5.4025,5.4066,5.4087,5.4154,5.4192,5.4176,5.4218,5.4264,5.4318,5.4383,5.4434,5.4545,5.4553,5.4611,5.4595,5.4688,5.4604,5.4607,5.4594,5.459,5.4596,5.4704,5.4707,5.4709,5.4711,0,5.4138,5.4133,5.4191,5.4248,5.4295,5.4339,5.4379,5.4415,5.4402,5.4451,5.452,5.456,5.4638,5.4702,5.4757,5.4774,5.474,5.4738,5.4759,5.4766,5.4764,5.4765,5.4488,5.4731,5.4729,5.4728,5.4727,5.4726,5.4297,5.4357,5.4391,5.4456,5.4484,5.4522,5.4579,5.4588,5.4646,5.4708,5.4695,5.4773,5.4806,5.4876,5.4899,5.4958,5.4925,5.4957,5.4964,5.4972,5.4981,5.4756,5.4969,5.4968,5.4967,5.4967,5.4966,0,5.4513,5.4532,5.4592,5.4649,5.4699,5.4664,5.4706,5.475,5.4819,5.4853,5.4904,5.4983,5.5045,5.5058,5.5116,5.5161,5.5147,5.5177,5.5173,5.5177,5.5008,5.4983,5.5188,5.5188,5.5187,5.5187,5.5187,5.5187,5.4631,5.4731,5.473,5.4842,5.486,5.4937,5.4963,5.4997,5.5024,5.5114,5.5165,5.5174,5.5199,5.5259,5.5313,5.5315,5.5338,5.5374,5.537,5.5211,5.5189,5.5168,5.5144,5.5379,5.5379,5.5533,5.5535,5.5536]}]]